Bar Harbor, ME

10:42 AM EST on December 08, 2019 (GMT -0500)
Hancock County-Bar Harbor

Weather History for KBHB - August, 2019

Change the Weather History Date:

Thursday, August 8, 2019

  Actual Average Record
Temperature  
Mean Temperature 64 °F -  
Max Temperature 69 °F 78 °F 88 °F (1949)
Min Temperature 60 °F 57 °F 44 °F (1982)
Growing Degree Days 14 (Base 50)    
Moisture  
Dew Point 64 °F    
Average Humidity 96    
Maximum Humidity 100    
Minimum Humidity 84    
Precipitation  
Precipitation 0.44 in - - ()
Sea Level Pressure  
Sea Level Pressure 29.72 in    
Wind  
Wind Speed 11 mph (SSE)    
Max Wind Speed 24 mph    
Max Gust Speed 31 mph    
Visibility 6 miles    
Events Fog , Rain    
Averages and records for this station are not official NWS values.
T = Trace of Precipitation, MM = Missing Value Source: NWS Daily Summary

Daily Weather History Graph

Daily Weather History Graph

Search for Another Location

Airport or City:

Astronomy

Aug. 08, 2019 Rise Set
Actual Time 5:27 AM EDT 7:49 PM EDT
Civil Twilight 4:55 AM EDT 8:21 PM EDT
Nautical Twilight 4:15 AM EDT 9:01 PM EDT
Astronomical Twilight 3:29 AM EDT 9:46 PM EDT
Moon 2:21 PM EDT No Moon Set
Length of Visible Light 15h 26m
Length of Day
14h 21m
First Quarter, 60% of the Moon is Illuminated
Aug 8
First Quarter
Aug 15
Full
Aug 23
Last Quarter
Aug 30
New
Sep 5
First Quarter

Hourly Weather History & Observations

Time (EDT) Temp. Dew Point Humidity Pressure Visibility Wind Dir Wind Speed Gust Speed Precip Events Conditions
12:56 AM 66.0 °F 64.9 °F 96% 29.85 in 9.0 mi SSE 4.6 mph - 0.17 in   Overcast
1:50 AM 66.2 °F 66.2 °F 100% 29.83 in 10.0 mi South 8.1 mph - 0.09 in   Overcast
1:56 AM 66.9 °F 66.0 °F 97% 29.84 in 10.0 mi South 8.1 mph - 0.10 in   Overcast
2:54 AM 66.2 °F 64.4 °F 94% 29.81 in 10.0 mi SSE 11.5 mph - 0.03 in   Overcast
2:56 AM 66.0 °F 64.9 °F 96% 29.82 in 10.0 mi SSE 11.5 mph - 0.03 in   Overcast
3:56 AM 66.0 °F 64.9 °F 96% 29.80 in 10.0 mi South 15.0 mph - N/A   Overcast
4:34 AM 66.2 °F 64.4 °F 94% 29.79 in 10.0 mi South 13.8 mph - 0.00 in   Overcast
4:56 AM 66.0 °F 64.9 °F 96% 29.80 in 10.0 mi South 12.7 mph 19.6 mph 0.00 in   Overcast
5:56 AM 66.0 °F 64.0 °F 93% 29.79 in 10.0 mi South 15.0 mph - N/A   Overcast
6:47 AM 66.2 °F 64.4 °F 94% 29.78 in 10.0 mi South 19.6 mph 26.5 mph N/A   Overcast
6:56 AM 66.9 °F 64.9 °F 93% 29.79 in 10.0 mi South 17.3 mph 26.5 mph N/A   Overcast
7:25 AM 66.2 °F 64.4 °F 94% 29.79 in 10.0 mi South 15.0 mph 23.0 mph N/A   Overcast
7:56 AM 66.9 °F 64.0 °F 90% 29.80 in 10.0 mi SW 12.7 mph 25.3 mph N/A   Overcast
8:27 AM 66.2 °F 64.4 °F 94% 29.78 in 5.0 mi South 15.0 mph - 0.00 in Rain Rain
8:40 AM 64.4 °F 64.4 °F 100% 29.78 in 6.0 mi South 12.7 mph - 0.01 in Rain Light Rain
8:54 AM 66.2 °F 64.4 °F 94% 29.77 in 4.0 mi South 13.8 mph 23.0 mph 0.02 in Rain Rain
8:56 AM 66.0 °F 64.0 °F 93% 29.78 in 5.0 mi South 15.0 mph - 0.02 in Rain Light Rain
9:14 AM 66.2 °F 64.4 °F 94% 29.77 in 8.0 mi SSE 13.8 mph - 0.01 in Rain Rain
9:56 AM 66.0 °F 64.0 °F 93% 29.76 in 6.0 mi SSE 16.1 mph 21.9 mph 0.02 in Rain Rain
10:08 AM 66.2 °F 64.4 °F 94% 29.74 in 7.0 mi SSE 15.0 mph 23.0 mph N/A Rain Rain
10:56 AM 69.1 °F 64.0 °F 84% 29.73 in 10.0 mi SSE 19.6 mph 31.1 mph N/A   Overcast
11:56 AM 66.0 °F 64.0 °F 93% 29.73 in 4.0 mi South 19.6 mph 25.3 mph 0.01 in Rain Heavy Rain
12:56 PM 66.9 °F 64.0 °F 90% 29.71 in 10.0 mi SSE 24.2 mph 29.9 mph 0.01 in   Overcast
1:56 PM 66.9 °F 64.0 °F 90% 29.69 in 10.0 mi SSE 21.9 mph 28.8 mph 0.01 in   Overcast
2:56 PM 66.0 °F 64.0 °F 93% 29.68 in 9.0 mi SSE 16.1 mph 25.3 mph 0.01 in   Overcast
3:10 PM 64.4 °F 64.4 °F 100% 29.67 in 8.0 mi South 17.3 mph 26.5 mph 0.00 in Rain Light Rain
3:56 PM 64.0 °F 64.0 °F 100% 29.67 in 3.0 mi South 17.3 mph 24.2 mph 0.01 in   Overcast
4:18 PM 64.4 °F 64.4 °F 100% 29.66 in 2.0 mi South 19.6 mph 25.3 mph N/A   Overcast
4:50 PM 64.4 °F 62.6 °F 94% 29.66 in 3.0 mi South 17.3 mph 24.2 mph 0.01 in   Overcast
4:56 PM 64.0 °F 63.0 °F 96% 29.67 in 2.0 mi South 15.0 mph - 0.01 in   Overcast
5:56 PM 64.0 °F 63.0 °F 96% 29.66 in 4.0 mi SSE 11.5 mph - N/A   Overcast
6:56 PM 64.0 °F 63.0 °F 96% 29.66 in 1.8 mi South 9.2 mph - 0.01 in   Overcast
7:02 PM 64.4 °F 62.6 °F 94% 29.65 in 0.8 mi South 10.4 mph - N/A   Overcast
7:16 PM 62.6 °F 62.6 °F 100% 29.65 in 0.5 mi SSE 6.9 mph - N/A Fog Fog
7:40 PM 62.6 °F 62.6 °F 100% 29.65 in 0.2 mi SSE 6.9 mph - N/A Fog Fog
7:56 PM 63.0 °F 63.0 °F 100% 29.64 in 0.5 mi SE 3.5 mph - 0.01 in Fog Fog
8:28 PM 62.6 °F 62.6 °F 100% 29.65 in 0.8 mi Calm Calm - N/A   Overcast
8:56 PM 63.0 °F 62.1 °F 97% 29.66 in 1.0 mi ESE 4.6 mph - N/A   Overcast
9:32 PM 62.6 °F 62.6 °F 100% 29.65 in 0.5 mi Calm Calm - N/A Fog Fog
9:56 PM 62.1 °F 62.1 °F 100% 29.65 in 0.5 mi Calm Calm - 0.01 in Fog Fog
10:56 PM 61.0 °F 61.0 °F 100% 29.62 in 0.5 mi Calm Calm - N/A Fog Fog
11:41 PM 60.8 °F 60.8 °F 100% 29.60 in 0.2 mi NNE 4.6 mph - 0.01 in Fog Fog
11:56 PM 62.1 °F 61.0 °F 96% 29.61 in 0.2 mi NNW 4.6 mph - 0.01 in Fog Fog